User: anonymous   Login
Location: Unspecified
(0.0000°N, 0.0000°E)
Time: 20:01:34
(UTC+00:00)
Language:

BEESAT 2 - Orbit

View from above orbital plane
View from above orbital plane
View from above satellite
View from above satellite

Ground track
Ground track

The orbit data is extracted from the following two-line orbital elements,

1 39136U 13015G   18017.19001596  .00000748  00000-0  48916-4 0  9991
2 39136  64.8692 269.0091 0030452 253.1347 106.6438 15.15804342261702
Epoch (UTC): 17 January 2018 04:33:37
Eccentricity: 0.0030452
inclination: 64.8692°
perigee height: 497 km
apogee height: 539 km
right ascension of ascending node: 269.0091°
argument of perigee: 253.1347°
revolutions per day: 15.15804342
mean anomaly at epoch: 106.6438°
orbit number at epoch: 26170

The dashed part of the orbit path shows where the satellite is in the earth's shadow,  

DLR